Regional Weather Roundup
Issued by NWS Burlington, VT

Home | Current Version | Previous Version | Text Only | Print | Product List | Glossary On
Versions: 1 2 3 4 5 6 7 8 9 10 11 12 13 14 15 16 17 18 19 20 21 22 23 24 25 26 27 28 29 30 31 32 33 34 35 36 37 38 39 40 41 42 43 44 45 46 47 48 49 50
000
ASUS41 KBTV 272110
RWRBTV
VERMONT REGIONAL WEATHER ROUNDUP
NATIONAL WEATHER SERVICE BURLINGTON VT
400 PM EST MON FEB 27 2017

NOTE: "FAIR" INDICATES FEW OR NO CLOUDS BELOW 12,000 FEET WITH NO
SIGNIFICANT WEATHER AND/OR OBSTRUCTIONS TO VISIBILITY.

* THESE REPORTS ARE NOT UNDER NWS QUALITY CONTROL AND/OR DO NOT
  REPORT WEATHER SUCH AS PRECIPITATION AND FOG.

VTZ001>019-272200-
_____VERMONT_____


CITY           SKY/WX    TMP DP  RH WIND       PRES   REMARKS
BURLINGTON     CLOUDY    46  24  42 W7        30.19R
MONTPELIER     CLOUDY    43  23  45 W13G21    30.20R
MORRISVILLE    CLOUDY    43  22  43 MISG      30.18R
ST. JOHNSBURY*   N/A     45  23  42 MISG      30.15R
LYNDONVILLE*   FAIR      41  24  51 SW16G22   30.16S
MIDDLEBURY*    CLOUDY    45   6  20 CALM      30.20S
RUTLAND*       CLOUDY    46  23  40 W9        30.21R
SPRINGFIELD    PTSUNNY   47  19  33 W13G23    30.21S
HIGHGATE*      CLOUDY    42  26  53 W6        30.17S
NEWPORT*       CLOUDY    39  25  58 W10       30.16R
BENNINGTON     MOSUNNY   50  20  30 W9G18     30.23S
SUTTON*          N/A     39 N/A N/A MISG        N/A

_____LAKE CHAMPLAIN_____


CITY           SKY/WX    TMP DP  RH WIND       PRES   REMARKS
BURTON ISLAND*   N/A     43  28  56 W16G25      N/A
COLCHESTER RF*   N/A     45  28  53 W18         N/A
DIAMOND ISL*     N/A     48  25  40 S8G15       N/A

$$

NYZ007-026>031-035-052-083-087-272200-
_____NORTHERN NEW YORK_____


CITY           SKY/WX    TMP DP  RH WIND       PRES   REMARKS
PLATTSBURGH    PTSUNNY   48  24  39 VRB5G17   30.17R
SARANAC LAKE   PTSUNNY   38  26  62 SW14G24   30.13S WCI  30
MASSENA        MOSUNNY   44  29  55 W12G20    30.18R
OGDENSBURG*    PTSUNNY   46  30  54 SW8G17    30.18R
POTSDAM*       MOSUNNY  N/A N/A N/A W21G28    30.18R
WATERTOWN      CLOUDY    41  30  65 W10       30.22R
FT DRUM        MOSUNNY   43  27  53 W9        30.20R
ALBANY         MOSUNNY   53  19  26 W15G22    30.25S
GLENS FALLS    CLOUDY    51  24  34 SW13G25   30.21S

$$
NHZ002-005-011-272200-
_____NEW HAMPSHIRE_____


CITY           SKY/WX    TMP DP  RH WIND       PRES   REMARKS
LEBANON        PTSUNNY   49  22  34 W9        30.19S
KEENE          SUNNY     51  19  28 SW13      30.23R
MT WASHINGTON  FOG       16  16 100 W66G71      N/A  VSB 1/16WCI -11
PLYMOUTH       PTSUNNY   47  21  35 W12       30.18R
WHITEFIELD     CLOUDY    43  22  43 W12G23    30.15R

$$

_____REGIONAL QUEBEC LOCATIONS_____


CITY           SKY/WX    TMP DP  RH WIND       PRES   REMARKS
MONTREAL       MOSUNNY   41  21  45 W16G23    30.16R
QUEBEC CITY    MOSUNNY   36  14  41 NW18G24   30.09R WCI  25
SHERBROOKE     LGT RAIN  37  27  65 W16G31    30.13R WCI  28

_____REGIONAL ONTARIO LOCATIONS_____


CITY           SKY/WX    TMP DP  RH WIND       PRES   REMARKS
OTTAWA         MOSUNNY   37  21  52 NW7       30.17R

______KEY______
VSB  - VISIBILITY IN MILES
WCI  - WIND CHILL INDEX
HX   - HEAT INDEX
$$
NNNN



USA.gov is the U.S. government's official web portal to all federal, state and local government web resources and services.